Weather History for Benson, MN

Change the Weather History Date:

Wednesday, June 19, 2013

  Actual Average Record
Temperature  
Mean Temperature 74 °F -  
Max Temperature 87 °F 79 °F 99 °F (1988)
Min Temperature 62 °F 56 °F 41 °F (2004)
Cooling Degree Days 10    
Growing Degree Days 24 (Base 50)    
Moisture  
Dew Point 57 °F    
Average Humidity 57    
Maximum Humidity 83    
Minimum Humidity 31    
Precipitation  
Precipitation 0.00 in - - ()
Sea Level Pressure  
Sea Level Pressure 29.95 in    
Wind  
Wind Speed 6 mph (South)    
Max Wind Speed 14 mph    
Max Gust Speed 20 mph    
Visibility 10 miles    
Events      
Averages and records for this station are not official NWS values.
T = Trace of Precipitation, MM = Missing Value Source: NWS Daily Summary

Daily Weather History Graph

Daily Weather History Graph

Search for Another Location

Airport:

Trip Planner

Search our weather history database for the weather conditions in past years. The results will help you decide how hot, cold, wet, or windy it might be!

Date:

Astronomy

Jun. 19, 2013 Rise Set
Actual Time 5:34 AM CDT 9:13 PM CDT
Civil Twilight 4:56 AM CDT 9:51 PM CDT
Nautical Twilight 4:05 AM CDT 10:42 PM CDT
Astronomical Twilight 2:57 AM CDT 11:50 PM CDT
Moon 5:00 PM CDT (6/19) 2:29 AM CDT (6/19)
Length of Visible Light 16h 55m
Length of Day
15h 39m
Waxing Gibbous, 80% of the Moon is Illuminated
Jun 19
Waxing Gibbous
Jun 23
Full
Jun 29
Last Quarter
Jul 8
New
Jul 15
First Quarter

Hourly Weather History & Observations

Time (CDT) Temp. Heat Index Dew Point Humidity Pressure Visibility Wind Dir Wind Speed Gust Speed Precip Events Conditions
12:12 AM 64.4 °F - 57.2 °F 77% 30.02 in 10.0 mi Calm Calm - N/A   Clear
12:33 AM 62.6 °F - 57.2 °F 82% 30.02 in 10.0 mi SE 3.5 mph - N/A   Clear
12:53 AM 62.6 °F - 57.2 °F 82% 30.02 in 10.0 mi SSE 5.8 mph - N/A   Scattered Clouds
1:12 AM 64.4 °F - 57.2 °F 77% 30.02 in 10.0 mi SE 4.6 mph - N/A   Mostly Cloudy
1:33 AM 64.4 °F - 57.2 °F 77% 30.02 in 10.0 mi SE 4.6 mph - N/A   Mostly Cloudy
1:53 AM 64.4 °F - 57.2 °F 77% 30.01 in 10.0 mi SSE 5.8 mph - N/A   Mostly Cloudy
2:12 AM 64.4 °F - 57.2 °F 77% 30.00 in 10.0 mi SSE 5.8 mph - N/A   Scattered Clouds
2:33 AM 64.4 °F - 57.2 °F 77% 30.00 in 10.0 mi SSE 8.1 mph - N/A   Scattered Clouds
2:52 AM 64.4 °F - 57.2 °F 77% 30.01 in 10.0 mi South 8.1 mph - N/A   Scattered Clouds
3:13 AM 64.4 °F - 57.2 °F 77% 30.00 in 10.0 mi South 8.1 mph - N/A   Mostly Cloudy
3:33 AM 64.4 °F - 57.2 °F 77% 29.99 in 10.0 mi SSE 5.8 mph - N/A   Overcast
3:52 AM 64.4 °F - 57.2 °F 77% 29.99 in 10.0 mi South 8.1 mph - N/A   Scattered Clouds
4:13 AM 62.6 °F - 57.2 °F 82% 29.99 in 10.0 mi ESE 4.6 mph - N/A   Clear
4:33 AM 62.6 °F - 57.2 °F 82% 30.00 in 10.0 mi SE 3.5 mph - N/A   Scattered Clouds
4:52 AM 62.6 °F - 57.2 °F 82% 30.00 in 10.0 mi SSE 6.9 mph - N/A   Mostly Cloudy
5:13 AM 62.6 °F - 57.2 °F 82% 30.01 in 10.0 mi South 6.9 mph - N/A   Mostly Cloudy
5:33 AM 62.6 °F - 57.2 °F 82% 30.01 in 10.0 mi SSE 8.1 mph - N/A   Scattered Clouds
5:52 AM 62.6 °F - 57.2 °F 82% 30.01 in 10.0 mi SSE 6.9 mph - N/A   Clear
6:13 AM 62.6 °F - 57.2 °F 82% 30.01 in 10.0 mi South 9.2 mph - N/A   Clear
6:32 AM 62.6 °F - 57.2 °F 82% 30.01 in 10.0 mi South 6.9 mph - N/A   Clear
6:52 AM 64.4 °F - 59.0 °F 83% 30.00 in 10.0 mi South 6.9 mph - N/A   Clear
7:13 AM 66.2 °F - 59.0 °F 78% 30.00 in 10.0 mi South 6.9 mph - N/A   Clear
7:32 AM 66.2 °F - 60.8 °F 83% 30.00 in 10.0 mi South 6.9 mph - N/A   Clear
7:52 AM 68.0 °F - 59.0 °F 73% 30.00 in 10.0 mi South 5.8 mph - N/A   Clear
8:13 AM 69.8 °F - 59.0 °F 68% 30.00 in 10.0 mi South 8.1 mph - N/A   Clear
8:32 AM 69.8 °F - 59.0 °F 68% 30.01 in 10.0 mi South 9.2 mph - N/A   Clear
8:53 AM 71.6 °F - 60.8 °F 69% 30.00 in 10.0 mi South 8.1 mph - N/A   Clear
9:13 AM 73.4 °F - 60.8 °F 65% 30.00 in 10.0 mi South 8.1 mph - N/A   Clear
9:32 AM 73.4 °F - 60.8 °F 65% 29.99 in 10.0 mi South 8.1 mph - N/A   Clear
9:53 AM 73.4 °F - 60.8 °F 65% 29.99 in 10.0 mi South 10.4 mph - N/A   Clear
10:13 AM 75.2 °F - 60.8 °F 61% 29.99 in 10.0 mi South 8.1 mph - N/A   Clear
10:32 AM 77.0 °F - 60.8 °F 57% 29.98 in 10.0 mi South 8.1 mph - N/A   Clear
10:53 AM 78.8 °F - 60.8 °F 54% 29.97 in 10.0 mi South 9.2 mph - N/A   Clear
11:13 AM 78.8 °F - 60.8 °F 54% 29.97 in 10.0 mi SSE 8.1 mph - N/A   Clear
11:32 AM 80.6 °F 81.5 °F 60.8 °F 51% 29.97 in 10.0 mi South 9.2 mph - N/A   Clear
11:53 AM 80.6 °F 81.5 °F 60.8 °F 51% 29.96 in 10.0 mi South 11.5 mph - N/A   Clear
12:12 PM 82.4 °F 82.9 °F 60.8 °F 48% 29.96 in 10.0 mi SSW 8.1 mph - N/A   Clear
12:32 PM 82.4 °F 82.9 °F 60.8 °F 48% 29.96 in 10.0 mi South 6.9 mph 16.1 mph N/A   Clear
12:53 PM 82.4 °F 82.9 °F 60.8 °F 48% 29.95 in 10.0 mi SSW 8.1 mph - N/A   Clear
1:12 PM 82.4 °F 82.0 °F 57.2 °F 42% 29.95 in 10.0 mi SSW 6.9 mph - N/A   Scattered Clouds
1:32 PM 84.2 °F 83.0 °F 55.4 °F 37% 29.94 in 10.0 mi SSW 4.6 mph - N/A   Scattered Clouds
1:53 PM 82.4 °F 82.0 °F 57.2 °F 42% 29.94 in 10.0 mi Calm Calm - N/A   Scattered Clouds
2:12 PM 84.2 °F 83.5 °F 57.2 °F 40% 29.93 in 10.0 mi SSW 6.9 mph - N/A   Scattered Clouds
2:32 PM 84.2 °F 83.5 °F 57.2 °F 40% 29.92 in 10.0 mi SSW 11.5 mph - N/A   Scattered Clouds
2:52 PM 86.0 °F 84.2 °F 53.6 °F 33% 29.92 in 10.0 mi WSW 5.8 mph - N/A   Scattered Clouds
3:12 PM 84.2 °F 83.0 °F 55.4 °F 37% 29.92 in 10.0 mi SSW 8.1 mph - N/A   Scattered Clouds
3:33 PM 87.8 °F 86.5 °F 57.2 °F 35% 29.91 in 10.0 mi SSW 9.2 mph - N/A   Scattered Clouds
3:52 PM 87.8 °F 86.1 °F 55.4 °F 33% 29.91 in 10.0 mi South 10.4 mph - N/A   Scattered Clouds
4:12 PM 87.8 °F 86.1 °F 55.4 °F 33% 29.90 in 10.0 mi South 11.5 mph 16.1 mph N/A   Scattered Clouds
4:33 PM 87.8 °F 86.1 °F 55.4 °F 33% 29.90 in 10.0 mi South 11.5 mph - N/A   Scattered Clouds
4:52 PM 87.8 °F 85.7 °F 53.6 °F 31% 29.89 in 10.0 mi West 11.5 mph - N/A   Scattered Clouds
5:12 PM 86.0 °F - 51.8 °F 31% 29.89 in 10.0 mi WSW 9.2 mph 16.1 mph N/A   Clear
5:33 PM 84.2 °F 83.0 °F 55.4 °F 37% 29.89 in 10.0 mi South 6.9 mph - N/A   Scattered Clouds
5:52 PM 86.0 °F 84.2 °F 53.6 °F 33% 29.88 in 10.0 mi SSW 13.8 mph 19.6 mph N/A   Clear
6:13 PM 82.4 °F 81.7 °F 55.4 °F 39% 29.88 in 10.0 mi South 9.2 mph - N/A   Clear
6:33 PM 82.4 °F 81.7 °F 55.4 °F 39% 29.88 in 10.0 mi SSW 8.1 mph - N/A   Scattered Clouds
6:52 PM 82.4 °F 81.7 °F 55.4 °F 39% 29.88 in 10.0 mi SSW 9.2 mph - N/A   Clear
7:13 PM 82.4 °F 81.7 °F 55.4 °F 39% 29.88 in 10.0 mi South 8.1 mph - N/A   Scattered Clouds
7:33 PM 82.4 °F 81.4 °F 53.6 °F 37% 29.88 in 10.0 mi South 8.1 mph - N/A   Scattered Clouds
7:52 PM 82.4 °F 81.4 °F 53.6 °F 37% 29.88 in 10.0 mi South 8.1 mph - N/A   Clear
8:13 PM 82.4 °F 81.4 °F 53.6 °F 37% 29.88 in 10.0 mi South 9.2 mph - N/A   Clear
8:33 PM 80.6 °F 80.5 °F 55.4 °F 42% 29.88 in 10.0 mi South 8.1 mph - N/A   Clear
8:52 PM 80.6 °F 80.5 °F 55.4 °F 42% 29.88 in 10.0 mi South 8.1 mph - N/A   Scattered Clouds
9:13 PM 78.8 °F - 55.4 °F 44% 29.88 in 10.0 mi South 6.9 mph - N/A   Scattered Clouds
9:33 PM 78.8 °F - 57.2 °F 47% 29.88 in 10.0 mi SSE 6.9 mph - N/A   Clear
9:52 PM 77.0 °F - 57.2 °F 50% 29.89 in 10.0 mi SSE 8.1 mph - N/A   Clear
10:13 PM 78.8 °F - 57.2 °F 47% 29.90 in 10.0 mi South 8.1 mph - N/A   Scattered Clouds
10:32 PM 75.2 °F - 57.2 °F 53% 29.91 in 10.0 mi South 8.1 mph - N/A   Scattered Clouds
10:52 PM 75.2 °F - 57.2 °F 53% 29.90 in 10.0 mi South 9.2 mph - N/A   Scattered Clouds
11:13 PM 75.2 °F - 57.2 °F 53% 29.90 in 10.0 mi South 9.2 mph - N/A   Clear
11:32 PM 75.2 °F - 57.2 °F 53% 29.89 in 10.0 mi South 9.2 mph - N/A   Clear
11:53 PM 75.2 °F - 59.0 °F 57% 29.89 in 10.0 mi South 10.4 mph - N/A   Clear